timestamp,wind_dir_avg,wind_spd_avg,wind_spd_max_dir,wind_spd_gust,battery_voltage,lat,long
2023-03-25 00:04:01+00:00,50.0,20.12,50.0,24.68,12.25,47.59359,-54.27349
2023-03-25 00:14:00+00:00,46.0,18.58,52.0,22.72,12.25,47.59359,-54.27349
2023-03-25 00:24:00+00:00,46.0,17.11,51.0,22.13,12.25,47.59359,-54.27349
2023-03-25 00:34:00+00:00,43.0,19.09,48.0,25.74,12.25,47.59359,-54.27349
2023-03-25 00:44:00+00:00,44.0,19.49,45.0,23.92,12.25,47.59359,-54.27349
2023-03-25 00:54:00+00:00,45.0,18.3,52.0,22.55,12.25,47.59359,-54.27349
2023-03-25 01:04:00+00:00,44.0,17.68,57.0,21.03,12.25,47.59359,-54.27349
2023-03-25 01:14:00+00:00,43.0,17.65,45.0,21.86,12.17,47.59359,-54.27349
2023-03-25 01:24:00+00:00,40.0,18.11,53.0,21.81,12.17,47.59359,-54.27349
2023-03-25 01:34:00+00:00,39.0,18.23,40.0,20.71,12.17,47.59359,-54.27349
2023-03-25 01:44:00+00:00,41.0,17.77,45.0,21.39,12.17,47.59359,-54.27349
2023-03-25 01:54:00+00:00,38.0,19.22,49.0,24.05,12.17,47.59359,-54.27349
2023-03-25 02:04:00+00:00,40.0,18.55,44.0,21.03,12.17,47.59359,-54.27349
2023-03-25 02:14:00+00:00,37.0,19.54,37.0,22.85,12.17,47.59359,-54.27349
2023-03-25 02:24:00+00:00,34.0,19.25,37.0,23.89,12.17,47.59359,-54.27349
2023-03-25 02:34:00+00:00,34.0,19.78,32.0,23.12,12.17,47.59359,-54.27349
2023-03-25 02:44:00+00:00,34.0,19.78,32.0,24.52,12.17,47.59359,-54.27349
2023-03-25 02:54:00+00:00,32.0,19.45,28.0,22.78,12.17,47.59359,-54.27349
2023-03-25 03:04:00+00:00,30.0,20.46,32.0,23.95,12.17,47.59359,-54.27349
2023-03-25 03:14:00+00:00,29.0,20.3,30.0,22.56,12.17,47.59359,-54.27349
2023-03-25 03:24:00+00:00,30.0,19.41,32.0,24.63,12.17,47.59359,-54.27349
2023-03-25 03:34:00+00:00,29.0,20.28,28.0,23.22,12.17,47.59359,-54.27349
2023-03-25 03:44:00+00:00,27.0,19.45,28.0,22.2,12.17,47.59359,-54.27349
2023-03-25 03:54:00+00:00,27.0,20.18,28.0,24.58,12.17,47.59359,-54.27349
2023-03-25 04:04:00+00:00,26.0,19.46,28.0,23.39,12.17,47.59359,-54.27349
2023-03-25 04:14:00+00:00,26.0,17.98,25.0,21.7,12.17,47.59359,-54.27349
2023-03-25 04:24:00+00:00,27.0,18.65,28.0,23.63,12.17,47.59359,-54.27349
2023-03-25 04:34:00+00:00,32.0,18.41,32.0,21.34,12.17,47.59359,-54.27349
2023-03-25 04:44:00+00:00,30.0,18.67,28.0,23.06,12.17,47.59359,-54.27349
2023-03-25 04:54:00+00:00,31.0,19.48,32.0,22.47,12.17,47.59359,-54.27349
2023-03-25 05:04:00+00:00,29.0,19.09,32.0,23.43,12.17,47.59359,-54.27349
2023-03-25 05:14:00+00:00,29.0,20.04,26.0,23.99,12.09,47.59359,-54.27349
2023-03-25 05:24:00+00:00,25.0,20.15,24.0,24.44,12.09,47.59359,-54.27349
2023-03-25 05:34:00+00:00,25.0,19.68,28.0,23.83,12.09,47.59359,-54.27349
2023-03-25 05:44:00+00:00,23.0,21.56,32.0,25.64,12.09,47.59359,-54.27349
2023-03-25 05:54:00+00:00,29.0,20.68,36.0,24.41,12.09,47.59359,-54.27349
2023-03-25 06:04:00+00:00,28.0,19.54,35.0,25.8,12.09,47.59359,-54.27349
2023-03-25 06:14:00+00:00,29.0,20.27,32.0,24.08,12.09,47.59359,-54.27349
2023-03-25 06:24:00+00:00,27.0,21.51,30.0,25.02,12.09,47.59359,-54.27349
2023-03-25 06:34:00+00:00,27.0,21.48,25.0,24.85,12.09,47.59359,-54.27349
2023-03-25 06:44:00+00:00,27.0,20.9,26.0,24.32,12.09,47.59359,-54.27349
2023-03-25 06:54:00+00:00,27.0,19.72,29.0,24.87,12.09,47.59359,-54.27349
2023-03-25 07:04:00+00:00,31.0,21.25,31.0,24.83,12.09,47.59359,-54.27349
2023-03-25 07:14:00+00:00,29.0,19.33,33.0,22.3,12.01,47.59359,-54.27349
2023-03-25 07:24:00+00:00,25.0,19.16,31.0,24.24,12.01,47.59359,-54.27349
2023-03-25 07:34:00+00:00,26.0,22.01,26.0,25.0,12.01,47.59359,-54.27349
2023-03-25 07:44:00+00:00,27.0,17.88,29.0,22.08,12.01,47.59359,-54.27349
2023-03-25 07:54:00+00:00,28.0,20.18,30.0,23.7,12.01,47.59359,-54.27349
2023-03-25 08:04:00+00:00,24.0,19.08,28.0,22.6,12.01,47.59359,-54.27349
2023-03-25 08:14:00+00:00,26.0,18.92,33.0,21.81,12.01,47.59359,-54.27349
2023-03-25 08:24:00+00:00,27.0,20.94,24.0,24.41,12.01,47.59359,-54.27349
2023-03-25 08:34:00+00:00,27.0,19.47,36.0,22.55,12.01,47.59359,-54.27349
2023-03-25 08:44:00+00:00,30.0,19.0,42.0,22.15,12.01,47.59359,-54.27349
2023-03-25 08:54:00+00:00,29.0,17.41,36.0,22.5,12.01,47.59359,-54.27349
2023-03-25 09:04:00+00:00,24.0,18.56,17.0,21.89,12.01,47.59359,-54.27349
2023-03-25 09:14:00+00:00,25.0,18.06,19.0,20.5,12.01,47.59359,-54.27349
2023-03-25 09:24:00+00:00,27.0,16.16,30.0,19.49,12.01,47.59359,-54.27349
2023-03-25 09:34:00+00:00,27.0,16.86,29.0,20.19,12.01,47.59359,-54.27349
2023-03-25 09:44:00+00:00,23.0,18.15,20.0,21.84,12.01,47.59359,-54.27349
2023-03-25 09:54:00+00:00,22.0,17.63,20.0,20.56,12.01,47.59359,-54.27349
2023-03-25 10:04:00+00:00,25.0,15.95,24.0,18.13,12.01,47.59359,-54.27349
2023-03-25 10:14:00+00:00,20.0,17.13,21.0,20.97,12.09,47.59359,-54.27349
2023-03-25 10:24:00+00:00,22.0,18.42,18.0,22.94,12.09,47.59359,-54.27349
2023-03-25 10:34:00+00:00,22.0,19.45,22.0,22.96,12.09,47.59359,-54.27349
2023-03-25 10:44:00+00:00,20.0,19.6,16.0,22.67,12.09,47.59359,-54.27349
2023-03-25 10:54:00+00:00,24.0,17.27,32.0,21.27,12.09,47.59359,-54.27349
2023-03-25 11:04:00+00:00,25.0,15.77,24.0,17.8,12.09,47.59359,-54.27349
2023-03-25 11:14:00+00:00,23.0,17.51,17.0,21.47,12.49,47.59359,-54.27349
2023-03-25 11:24:00+00:00,26.0,16.3,18.0,18.92,12.49,47.59359,-54.27349
2023-03-25 11:34:00+00:00,21.0,18.66,19.0,21.63,12.49,47.59359,-54.27349
2023-03-25 11:44:00+00:00,23.0,18.58,17.0,22.41,12.49,47.59359,-54.27349
2023-03-25 11:54:00+00:00,28.0,15.76,38.0,20.41,12.49,47.59359,-54.27349
2023-03-25 12:04:00+00:00,24.0,17.51,21.0,19.75,12.49,47.59359,-54.27349
2023-03-25 12:14:00+00:00,24.0,16.78,23.0,19.73,13.21,47.59359,-54.27349
2023-03-25 12:24:00+00:00,24.0,17.13,22.0,20.16,13.21,47.59359,-54.27349
2023-03-25 12:34:00+00:00,23.0,17.55,19.0,21.98,13.21,47.59359,-54.27349
2023-03-25 12:44:00+00:00,22.0,19.37,23.0,22.31,13.21,47.59359,-54.27349
2023-03-25 12:54:00+00:00,26.0,17.24,22.0,19.46,13.21,47.59359,-54.27349
2023-03-25 13:04:00+00:00,21.0,19.75,18.0,22.83,13.21,47.59359,-54.27349
2023-03-25 13:14:00+00:00,25.0,17.44,22.0,20.27,13.53,47.59359,-54.27349
2023-03-25 13:24:00+00:00,23.0,15.83,15.0,17.94,13.53,47.59359,-54.27349
2023-03-25 13:34:00+00:00,26.0,16.54,23.0,18.59,13.53,47.59359,-54.27349
2023-03-25 13:44:00+00:00,28.0,16.1,22.0,18.83,13.53,47.59359,-54.27349
2023-03-25 13:54:00+00:00,24.0,17.27,20.0,21.72,13.53,47.59359,-54.27349
2023-03-25 14:04:00+00:00,24.0,17.29,17.0,21.44,13.53,47.59359,-54.27349
2023-03-25 14:14:00+00:00,24.0,17.48,19.0,19.88,13.6,47.59359,-54.27349
2023-03-25 14:24:00+00:00,24.0,17.3,29.0,20.39,13.6,47.59359,-54.27349
2023-03-25 14:34:00+00:00,27.0,15.98,26.0,19.42,13.6,47.59359,-54.27349
2023-03-25 14:44:00+00:00,24.0,17.31,20.0,21.06,13.6,47.59359,-54.27349
2023-03-25 14:54:00+00:00,26.0,16.86,20.0,19.07,13.6,47.59359,-54.27349
2023-03-25 15:04:00+00:00,25.0,16.27,22.0,18.46,13.6,47.59359,-54.27349
2023-03-25 15:14:00+00:00,26.0,17.47,25.0,21.91,13.68,47.59359,-54.27349
2023-03-25 15:24:00+00:00,28.0,15.25,22.0,19.58,13.68,47.59359,-54.27349
2023-03-25 15:34:00+00:00,24.0,17.27,23.0,20.0,13.68,47.59359,-54.27349
2023-03-25 15:44:00+00:00,25.0,17.42,35.0,21.76,13.68,47.59359,-54.27349
2023-03-25 15:54:00+00:00,25.0,16.91,20.0,19.14,13.68,47.59359,-54.27349
2023-03-25 16:04:00+00:00,28.0,15.74,17.0,18.65,13.68,47.59359,-54.27349
2023-03-25 16:14:00+00:00,25.0,16.83,28.0,20.13,13.92,47.59359,-54.27349
2023-03-25 16:24:00+00:00,20.0,18.08,19.0,21.38,13.92,47.59359,-54.27349
2023-03-25 16:34:00+00:00,23.0,17.71,22.0,20.41,13.92,47.59359,-54.27349
2023-03-25 16:44:00+00:00,26.0,16.77,27.0,19.58,13.92,47.59359,-54.27349
2023-03-25 16:54:00+00:00,22.0,12.4,19.0,14.92,13.92,47.59359,-54.27349
2023-03-25 17:04:00+00:00,22.0,13.72,25.0,15.78,13.92,47.59359,-54.27349
2023-03-25 17:14:00+00:00,20.0,14.12,19.0,16.08,13.68,47.59359,-54.27349
2023-03-25 17:24:00+00:00,17.0,14.49,17.0,18.33,13.68,47.59359,-54.27349
2023-03-25 17:34:00+00:00,15.0,16.1,20.0,20.16,13.68,47.59359,-54.27349
2023-03-25 17:44:00+00:00,20.0,16.46,21.0,18.62,13.68,47.59359,-54.27349
2023-03-25 17:54:00+00:00,18.0,17.68,18.0,21.09,13.68,47.59359,-54.27349
2023-03-25 18:04:00+00:00,17.0,16.22,21.0,18.87,13.68,47.59359,-54.27349
2023-03-25 18:14:00+00:00,19.0,17.4,22.0,19.69,13.92,47.59359,-54.27349
2023-03-25 18:24:00+00:00,15.0,14.03,21.0,16.23,13.92,47.59359,-54.27349
2023-03-25 18:34:00+00:00,14.0,13.98,13.0,16.46,13.92,47.59359,-54.27349
2023-03-25 18:44:00+00:00,14.0,13.46,18.0,16.24,13.92,47.59359,-54.27349
2023-03-25 18:54:00+00:00,14.0,13.21,19.0,18.13,13.92,47.59359,-54.27349
2023-03-25 19:04:00+00:00,20.0,16.41,20.0,19.58,13.92,47.59359,-54.27349
2023-03-25 19:14:00+00:00,14.0,18.06,15.0,22.37,13.84,47.59359,-54.27349
2023-03-25 19:24:00+00:00,19.0,15.36,21.0,17.99,13.84,47.59359,-54.27349
2023-03-25 19:34:00+00:00,17.0,13.62,17.0,16.3,13.84,47.59359,-54.27349
2023-03-25 19:44:00+00:00,2.0,14.06,357.0,18.24,13.84,47.59359,-54.27349
2023-03-25 19:54:00+00:00,13.0,15.34,18.0,18.2,13.84,47.59359,-54.27349
2023-03-25 20:04:00+00:00,12.0,15.39,12.0,19.08,13.84,47.59359,-54.27349
2023-03-25 20:14:00+00:00,8.0,15.82,18.0,21.44,13.68,47.59359,-54.27349
2023-03-25 20:24:00+00:00,4.0,14.75,355.0,17.75,13.68,47.59359,-54.27349
2023-03-25 20:34:00+00:00,0.0,16.26,8.0,19.1,13.68,47.59359,-54.27349
2023-03-25 20:44:00+00:00,11.0,12.17,6.0,16.34,13.68,47.59359,-54.27349
2023-03-25 20:54:00+00:00,12.0,12.55,15.0,15.56,13.68,47.59359,-54.27349
2023-03-25 21:04:00+00:00,11.0,13.38,13.0,16.75,13.68,47.59359,-54.27349
2023-03-25 21:14:00+00:00,10.0,13.72,12.0,16.01,13.37,47.59359,-54.27349
2023-03-25 21:24:00+00:00,6.0,12.37,6.0,15.27,13.37,47.59359,-54.27349
2023-03-25 21:34:00+00:00,5.0,11.75,355.0,15.01,13.37,47.59359,-54.27349
2023-03-25 21:44:00+00:00,9.0,13.44,13.0,16.2,13.37,47.59359,-54.27349
2023-03-25 21:54:00+00:00,3.0,13.55,353.0,17.63,13.37,47.59359,-54.27349
2023-03-25 22:04:00+00:00,7.0,11.23,353.0,12.99,13.37,47.59359,-54.27349
2023-03-25 22:14:00+00:00,12.0,12.36,16.0,14.33,12.73,47.59359,-54.27349
2023-03-25 22:24:00+00:00,12.0,13.19,14.0,16.37,12.73,47.59359,-54.27349
2023-03-25 22:34:00+00:00,12.0,13.0,14.0,15.51,12.73,47.59359,-54.27349
2023-03-25 22:44:00+00:00,8.0,13.82,12.0,16.39,12.73,47.59359,-54.27349
2023-03-25 22:54:00+00:00,5.0,11.05,0.0,12.77,12.73,47.59359,-54.27349
2023-03-25 23:04:00+00:00,0.0,12.97,0.0,15.5,12.73,47.59359,-54.27349
2023-03-25 23:14:00+00:00,8.0,12.03,14.0,15.35,12.41,47.59359,-54.27349
2023-03-25 23:24:00+00:00,10.0,12.39,10.0,14.83,12.41,47.59359,-54.27349
2023-03-25 23:34:00+00:00,9.0,10.12,16.0,12.74,12.41,47.59359,-54.27349
2023-03-25 23:44:00+00:00,10.0,11.18,16.0,14.47,12.41,47.59359,-54.27349
2023-03-25 23:54:00+00:00,13.0,11.45,15.0,14.06,12.41,47.59359,-54.27349
